THOR AGENA B DEB, 510

Orbit data source: Space-Track

THOR AGENA B DEB, 510 is space debris in LEO originally from a launch on Sat, 29 Sep 1962 UTC launched from the Air Force Western Test Range (AFWTR). Debris objects in space refer to the collection of defunct objects orbiting the Earth. Examples of debris include non-operational satellites, rocket bodies, and fragments generated from explosions, collisions, or faulty payload assembly.

Loading next visibility...
Identifier
510, 1962-049C
Orbit
LEO
Country
Flag of USUS
Related business
Manufacturer
Unknown
Mission
Spacecraft
Bus & Motor
Unknown
Mass
Unknown
Launch date (UTC)
1962-09-29 (63 years ago)
Launch vehicle
Unknown
Launch site
Air Force Western Test Range (AFWTR)
Object type
Payload
Rocket body
Debris
Shape & HBR
Unknown shape, 0.1 m
Radar Cross Section
Small (<0.1 m²)

Expand to show TLE details & history
Last TLE update: 22 hours ago

TLE from 22 hours ago
0 THOR AGENA B DEB
1 00510U 62049C   26037.14342823  .00000092  00000-0  94337-4 0  9993
2 00510  80.5126  94.7346 0016381  72.2726 307.2088 13.70052450164723
Epoch: 2026-02-06T03:26Z
TLE epoch observation values (Epoch: 2026-02-06T03:26:32.199Z)
Latitude
19.05601°
Longitude
-89.89301°
Altitude
994.426 km
Speed
7.36 km/s
True Right ascension
06h 32m 06s
True Declination
18° 57' 13"
Sunlit
Object was in full shadow at epoch
Visualization orbit readout
Latitude
Unknown
Longitude
Unknown
Altitude
Unknown
Speed
Unknown
Apparent Right ascension
Unknown
Apparent Declination
Unknown
Sunlit
N/A
Visualization observer readout
Local Sidereal Time
03:13:42
Azimuth
Unknown
Elevation
Unknown
Doppler factor
Unknown
Orbital elements
Apogee altitude
1,008.727 km
Perigee altitude
984.566 km
Semi-major axis
7,374.783 km
Eccentricity
0.00164
Inclination
80.5126°
RAAN
94.7346°
Arg. of periapsis
72.2726°
True anomaly
307.05911°
Mean anomaly
307.2088°
Eccentric anomaly
307.13398°
Mean motion
3.42704 °/min
Orbital period
105.05 mins
BSTAR
0.000094337
Loading maneuver chart data...
Computing Atmospheric mass density...
Loading historical data...
Loading historical data...
Loading historical data...
Loading historical data...
Loading historical data...
Loading historical data...
Loading historical data...
Other satellites on launch #49 in the year 1962 (1962-09-29 UTC)

Documentation

Showing up to 5 results
|